Location: Newcastle Observatory
(43.9158°N, 78.5831°W)
Time: 03:49:04
(UTC-04:00)

Amateur Radio Satellites - All Passes

Search period start: 02 April 2015 03:19
Search period end: 03 April 2015 03:19
Location: Newcastle Observatory, 43.9158°N, 78.5831°W

Satellite Date Start Highest point End Downlink Frequencies (MHz)
Time Altitude Azimuth
SO-50 02 Apr 03:25:06 03:30:05 85° 236° (WSW) 03:35:00 436.795
ITUPSAT 1 02 Apr 03:26:48 03:29:40 15° 271° (W) 03:32:20 437.325
Oscar 19 02 Apr 03:31:02 03:36:00 47° 290° (WNW) 03:40:57 437.125/150
STARS 02 Apr 03:39:27 03:43:48 69° 258° (WSW) 03:48:11 437.465
HORYU 2 02 Apr 03:45:34 03:48:01 15° 89° (E) 03:50:40 437.375
MOZHAYETS 4 02 Apr 03:45:42 03:48:08 15° 62° (ENE) 03:50:45
VERMONT LUNAR 02 Apr 04:08:23 04:10:30 16° 154° (SSE) 04:12:39 437.305
AIST 1 02 Apr 04:08:37 04:12:53 53° 94° (E) 04:17:12
Gurwin Techsat 1B 02 Apr 04:17:53 04:23:11 66° 287° (WNW) 04:28:26 435.225
ISS 02 Apr 04:29:21 04:32:32 53° 217° (SW) 04:35:41 145.825
AUBIESAT-1 02 Apr 04:30:04 04:33:03 19° 58° (ENE) 04:36:19 437.475
AO-7 02 Apr 04:35:02 04:42:19 34° 95° (E) 04:49:44 29.400- 29.500
O/OREOS (USA 219) 02 Apr 04:42:06 04:46:34 48° 298° (WNW) 04:51:02 437.305
ITAMSAT 1 02 Apr 04:45:41 04:50:15 32° 294° (WNW) 04:54:45 435.822/435.867
JAS-2 02 Apr 04:49:28 04:56:35 41° 93° (E) 05:03:10 435.910
M-CUBED/EXP-1 PRIME 02 Apr 04:56:57 05:00:48 37° 64° (ENE) 05:05:01 437.505
RS-15 02 Apr 05:06:56 05:18:06 57° 245° (WSW) 05:29:38 29.354- 29.394
GONETS M04 02 Apr 05:07:44 05:13:57 21° 59° (ENE) 05:20:30
SO-50 02 Apr 05:08:16 05:09:58 11° 252° (WSW) 05:11:22 436.795
MOZHAYETS 4 02 Apr 05:20:15 05:24:52 69° 259° (WSW) 05:29:32
HORYU 2 02 Apr 05:20:40 05:25:07 58° 287° (WNW) 05:29:33 437.375
PHONESAT 2.4 02 Apr 05:21:54 05:24:41 22° 157° (SSE) 05:27:29 2401.200-2431.200
CUBESAT XI-V 02 Apr 05:43:11 05:46:25 19° 65° (ENE) 05:49:47 437.345
VERMONT LUNAR 02 Apr 05:44:33 05:47:42 39° 170° (S) 05:50:51 437.305
AIST 1 02 Apr 05:48:17 05:50:58 15° 293° (WNW) 05:53:30
Gurwin Techsat 1B 02 Apr 06:01:39 06:02:16 10° 304° (NW) 06:02:36 435.225
AUBIESAT-1 02 Apr 06:03:25 06:07:29 51° 256° (WSW) 06:11:54 437.475
PRISM 02 Apr 06:24:05 06:27:56 35° 70° (ENE) 06:31:49 437.425
AO-7 02 Apr 06:27:27 06:35:33 58° 295° (WNW) 06:43:36 29.400- 29.500
STRAND 1 02 Apr 06:29:13 06:33:43 32° 67° (ENE) 06:38:17 437.568
M-CUBED/EXP-1 PRIME 02 Apr 06:32:26 06:35:51 23° 263° (W) 06:39:25 437.505
JAS-2 02 Apr 06:34:25 06:41:42 45° 294° (WNW) 06:48:19 435.910
CUSAT 1 02 Apr 06:49:30 06:52:57 21° 72° (ENE) 06:57:18 437.405
PHONESAT 2.4 02 Apr 06:59:13 07:02:36 45° 174° (S) 07:06:00 2401.200-2431.200
GONETS M04 02 Apr 07:03:22 07:12:16 90° 237° (WSW) 07:21:08
CUBESAT XI-V 02 Apr 07:18:56 07:23:32 51° 261° (W) 07:28:08 437.345
VERMONT LUNAR 02 Apr 07:21:55 07:25:07 43° 187° (S) 07:28:18 437.305
RS-15 02 Apr 07:25:03 07:28:26 11° 264° (W) 07:30:35 29.354- 29.394
CUTE-I 02 Apr 07:36:20 07:41:40 71° 102° (ESE) 07:46:58 437.470
Cubesat XI-IV 02 Apr 07:37:47 07:43:08 74° 103° (ESE) 07:48:27 437.490
PRISM 02 Apr 08:00:15 08:03:32 21° 267° (W) 08:06:45 437.425
DANDE 02 Apr 08:03:37 08:07:55 72° 79° (E) 08:13:45 436.750
STRAND 1 02 Apr 08:08:13 08:12:54 34° 264° (W) 08:17:32 437.568
AO-7 02 Apr 08:22:22 08:26:47 15° 316° (NW) 08:30:50 29.400- 29.500
JAS-2 02 Apr 08:23:25 08:24:53 10° 314° (NW) 08:25:54 435.910
CUSAT 1 02 Apr 08:31:17 08:35:47 50° 262° (W) 08:41:43 437.405
PHONESAT 2.4 02 Apr 08:37:20 08:40:40 40° 191° (S) 08:44:01 2401.200-2431.200
CANX-2 02 Apr 08:52:00 08:54:02 13° 88° (E) 08:56:17 2200.000
BEESAT 3 02 Apr 08:53:01 08:55:08 14° 111° (ESE) 08:57:25 437.485
DOVE 4 02 Apr 08:54:09 08:55:10 11° 87° (E) 08:56:29 437.250
BRITE-PL 02 Apr 08:58:04 09:01:39 26° 95° (E) 09:05:27 437.365/2234.400
VERMONT LUNAR 02 Apr 08:59:50 09:02:23 20° 203° (SSW) 09:04:55 437.305
GONETS M04 02 Apr 09:02:05 09:08:02 19° 281° (WNW) 09:13:32
CUTE 1.7 + AOD 2 02 Apr 09:04:43 09:07:28 17° 90° (E) 09:10:20 437.475
AAUSAT CUBESAT 2 02 Apr 09:13:55 09:15:31 12° 87° (E) 09:17:20 437.432
CUTE-I 02 Apr 09:17:42 09:21:14 18° 300° (WNW) 09:24:36 437.470
Cubesat XI-IV 02 Apr 09:19:15 09:22:42 17° 300° (WNW) 09:25:57 437.490
GOMX 1 02 Apr 09:23:07 09:27:00 32° 96° (E) 09:31:09 467.674
SEEDS 02 Apr 09:27:07 09:30:35 24° 93° (E) 09:34:07 437.485
HO-68 02 Apr 09:34:44 09:41:32 43° 98° (E) 09:48:20 435.675
CINEMA 3 02 Apr 09:38:18 09:41:17 18° 91° (E) 09:44:28 145.822/145.860
COMPASS 1 02 Apr 09:42:54 09:46:36 29° 95° (E) 09:50:20 437.405
DANDE 02 Apr 09:49:00 09:51:12 13° 267° (W) 09:53:18 436.750
AIST 2 02 Apr 09:56:40 09:59:44 20° 113° (ESE) 10:02:57 435.215
BEESAT 2 02 Apr 09:56:46 10:00:48 54° 120° (ESE) 10:04:53 435.950
DELFI C3 02 Apr 10:02:00 10:04:13 14° 89° (E) 10:06:35 145.870
DUCHIFAT 1 02 Apr 10:08:24 10:10:15 13° 63° (ENE) 10:12:17 145.980
QB50P1 02 Apr 10:08:55 10:10:55 14° 63° (ENE) 10:13:06 145.935-145.965
Oscar 11 02 Apr 10:09:32 10:13:03 24° 93° (E) 10:16:37 145.826/435.025
PHONESAT 2.4 02 Apr 10:16:11 10:18:31 17° 206° (SSW) 10:20:48 2401.200-2431.200
UNISAT 6 02 Apr 10:20:13 10:24:02 32° 69° (ENE) 10:27:58 437.425
QB50P2 02 Apr 10:24:11 10:27:10 20° 66° (ENE) 10:30:17 145.880/145.840
CANX-2 02 Apr 10:26:10 10:30:26 59° 286° (WNW) 10:34:41 2200.000
TIGRISAT 02 Apr 10:28:17 10:32:12 38° 71° (ENE) 10:36:16 435.000
FUNcube-1 02 Apr 10:28:37 10:31:56 21° 92° (E) 10:35:24 145.935
BEESAT 3 02 Apr 10:28:41 10:32:45 61° 307° (NW) 10:36:52 437.485
BUGSAT 1 02 Apr 10:28:56 10:31:17 15° 64° (ENE) 10:33:46 437.445
DOVE 4 02 Apr 10:29:07 10:33:30 77° 284° (WNW) 10:38:08 437.250
BRITE-PL 02 Apr 10:36:32 10:40:13 29° 290° (WNW) 10:44:01 437.365/2234.400
CUTE 1.7 + AOD 2 02 Apr 10:39:32 10:43:41 47° 288° (WNW) 10:47:49 437.475
ZACube-1 02 Apr 10:42:47 10:46:40 29° 95° (E) 10:50:39 437.345
UWE-3 02 Apr 10:43:40 10:47:49 37° 97° (E) 10:52:04 435.000/436.395/437.385
AAUSAT CUBESAT 2 02 Apr 10:47:26 10:51:39 63° 286° (WNW) 10:55:49 437.432
POPSAT HIP 1 02 Apr 10:51:01 10:54:50 35° 70° (ENE) 10:58:42 437.405
VELOX 1 02 Apr 10:56:07 10:57:54 12° 88° (E) 10:59:55 145.980
CUBEBUG 2 02 Apr 10:57:33 11:02:00 63° 100° (E) 11:06:34 437.445
50 SAT 02 Apr 10:57:40 10:59:28 13° 89° (E) 11:01:28 437.505
NANOSAT C BR1 02 Apr 10:59:35 11:03:33 43° 72° (ENE) 11:07:34 145.865
HUMSAT D 02 Apr 10:59:57 11:03:17 22° 93° (E) 11:06:43 437.325/437.525
ANTELSAT 02 Apr 11:00:28 11:04:45 87° 76° (ENE) 11:09:09 437.575/2403.000
GOMX 1 02 Apr 11:01:30 11:05:06 25° 291° (WNW) 11:08:46 467.674
AISAT 02 Apr 11:02:07 11:04:37 15° 90° (E) 11:07:18 437.250
SEEDS 02 Apr 11:02:37 11:06:27 32° 290° (WNW) 11:10:14 437.485
POLYITAN 1 02 Apr 11:07:39 11:11:45 54° 73° (ENE) 11:15:53 437.675
CINEMA 3 02 Apr 11:14:26 11:18:46 49° 287° (WNW) 11:23:15 145.822/145.860
UKube-1 02 Apr 11:17:09 11:21:18 44° 99° (E) 11:25:26 .
COMPASS 1 02 Apr 11:18:38 11:22:14 26° 292° (WNW) 11:25:46 437.405
HO-68 02 Apr 11:22:36 11:29:15 41° 297° (WNW) 11:35:47 435.675
DX 1 02 Apr 11:33:04 11:37:25 70° 103° (ESE) 11:41:44 434.975-435.025
AIST 2 02 Apr 11:33:55 11:38:04 47° 310° (NW) 11:42:15 435.215
DELFI C3 02 Apr 11:35:45 11:39:44 49° 287° (WNW) 11:43:41 145.870
BEESAT 2 02 Apr 11:36:05 11:39:16 20° 319° (NW) 11:42:24 435.950
DUCHIFAT 1 02 Apr 11:41:27 11:45:37 65° 258° (WSW) 11:49:49 145.980
QB50P1 02 Apr 11:42:11 11:46:22 63° 259° (W) 11:50:33 145.935-145.965
Oscar 11 02 Apr 11:45:22 11:49:19 33° 290° (WNW) 11:53:13 145.826/435.025
ESTCUBE 1 02 Apr 11:45:30 11:49:02 23° 93° (E) 11:52:39 437.505/2401.250
UNISAT 6 02 Apr 11:57:24 12:00:55 24° 267° (W) 12:04:26 437.425
QB50P2 02 Apr 11:58:52 12:02:51 40° 262° (W) 12:06:51 145.880/145.840
YUBILEINY 02 Apr 12:01:18 12:04:22 13° 74° (ENE) 12:08:08 435.215
BUGSAT 1 02 Apr 12:02:23 12:06:26 51° 260° (W) 12:10:27 437.445
FUNcube-1 02 Apr 12:04:18 12:08:27 40° 289° (WNW) 12:12:38 145.935
TIGRISAT 02 Apr 12:05:56 12:09:11 20° 269° (W) 12:12:21 435.000
BEESAT 3 02 Apr 12:10:17 12:11:43 11° 328° (NNW) 12:13:01 437.485
CUBEBUG 1 02 Apr 12:17:52 12:22:00 43° 98° (E) 12:26:08 437.445
ZACube-1 02 Apr 12:19:11 12:23:00 29° 291° (WNW) 12:26:50 437.345
UWE-3 02 Apr 12:20:37 12:24:11 24° 293° (WNW) 12:27:45 435.000/436.395/437.385
POPSAT HIP 1 02 Apr 12:27:35 12:30:51 21° 267° (W) 12:34:02 437.405
VELOX 1 02 Apr 12:30:38 12:35:01 65° 286° (WNW) 12:39:23 145.980
50 SAT 02 Apr 12:30:48 12:34:46 54° 286° (WNW) 12:38:44 437.505
HUMSAT D 02 Apr 12:35:15 12:39:09 35° 290° (WNW) 12:43:03 437.325/437.525
CUBEBUG 2 02 Apr 12:35:40 12:38:18 15° 296° (WNW) 12:40:50 437.445
NANOSAT C BR1 02 Apr 12:36:49 12:39:41 17° 269° (W) 12:42:25 145.865
AISAT 02 Apr 12:37:18 12:41:38 54° 288° (WNW) 12:45:56 437.250
POLYITAN 1 02 Apr 12:45:50 12:48:06 14° 271° (W) 12:50:11 437.675
UKube-1 02 Apr 12:54:03 12:57:10 19° 295° (WNW) 13:00:10 .
PCSat 02 Apr 13:00:29 13:01:16 10° 103° (ESE) 13:02:26 145.827
Oscar 19 02 Apr 13:10:26 13:15:06 38° 69° (ENE) 13:19:52 437.125/150
DX 1 02 Apr 13:11:05 13:13:10 13° 298° (WNW) 13:15:05 434.975-435.025
O/OREOS (USA 219) 02 Apr 13:11:28 13:15:51 45° 61° (ENE) 13:20:12 437.305
AIST 2 02 Apr 13:17:37 13:17:46 10° 331° (NNW) 13:17:47 435.215
TISAT 1 02 Apr 13:19:05 13:23:07 43° 98° (E) 13:27:08 437.305
ESTCUBE 1 02 Apr 13:21:53 13:26:04 37° 290° (WNW) 13:30:10 437.505/2401.250
SPROUT 02 Apr 13:45:40 13:49:58 79° 284° (WNW) 13:54:15 437.525
ITUPSAT 1 02 Apr 13:47:17 13:49:52 15° 88° (E) 13:52:40 437.325
AO-7 02 Apr 13:48:38 13:52:08 14° 42° (NE) 13:56:01 29.400- 29.500
YUBILEINY 02 Apr 13:50:59 13:59:40 67° 93° (E) 14:08:26 435.215
CUBEBUG 1 02 Apr 13:54:59 13:58:07 19° 295° (WNW) 14:01:08 437.445
Gurwin Techsat 1B 02 Apr 14:01:23 14:05:58 31° 67° (ENE) 14:10:40 435.225
AIST 1 02 Apr 14:15:31 14:18:05 16° 67° (ENE) 14:20:47
ITAMSAT 1 02 Apr 14:25:16 14:30:25 62° 72° (ENE) 14:35:34 435.822/435.867
SWISSCUBE 02 Apr 14:31:40 14:36:15 44° 99° (E) 14:40:49 437.505
BEESAT 02 Apr 14:33:49 14:38:23 43° 98° (E) 14:42:56 436.000
PCSat 02 Apr 14:38:29 14:43:54 77° 119° (ESE) 14:49:21 145.827
HORYU 2 02 Apr 14:45:30 14:48:20 17° 64° (ENE) 14:51:20 437.375
Oscar 19 02 Apr 14:50:11 14:54:35 28° 266° (W) 14:58:56 437.125/150
O/OREOS (USA 219) 02 Apr 14:51:41 14:54:59 19° 258° (WSW) 14:58:07 437.305
TISAT 1 02 Apr 14:55:41 14:58:38 18° 295° (WNW) 15:01:28 437.305
JAS-2 02 Apr 15:03:06 15:08:36 24° 57° (ENE) 15:14:36 435.910
KKS-1 02 Apr 15:07:26 15:10:28 18° 91° (E) 15:13:37 437.445
ITUPSAT 1 02 Apr 15:23:31 15:28:18 64° 287° (WNW) 15:33:01 437.325
STARS 02 Apr 15:28:40 15:31:49 19° 92° (E) 15:35:05 437.465
AO-7 02 Apr 15:35:19 15:43:13 53° 64° (ENE) 15:51:13 29.400- 29.500
Gurwin Techsat 1B 02 Apr 15:40:59 15:45:53 36° 264° (W) 15:50:47 435.225
YUBILEINY 02 Apr 15:49:46 15:57:19 29° 296° (WNW) 16:04:42 435.215
AIST 1 02 Apr 15:51:58 15:56:07 48° 266° (W) 16:00:13
ITAMSAT 1 02 Apr 16:06:50 16:10:24 18° 270° (W) 16:13:47 435.822/435.867
SWISSCUBE 02 Apr 16:10:08 16:13:52 22° 295° (WNW) 16:17:29 437.505
BEESAT 02 Apr 16:12:13 16:16:00 23° 295° (WNW) 16:19:41 436.000
HORYU 2 02 Apr 16:20:18 16:24:38 52° 260° (W) 16:29:01 437.375
PCSat 02 Apr 16:23:50 16:27:59 21° 320° (NW) 16:32:02 145.827
BEESAT 2 02 Apr 16:39:20 16:39:56 10° 30° (NNE) 16:40:41 435.950
KKS-1 02 Apr 16:43:07 16:47:24 45° 288° (WNW) 16:51:38 437.445
JAS-2 02 Apr 16:45:37 16:52:47 82° 256° (WSW) 17:00:39 435.910
STARS 02 Apr 17:04:20 17:08:31 42° 289° (WNW) 17:12:40 437.465
BEESAT 3 02 Apr 17:09:16 17:12:07 18° 39° (NE) 17:15:02 437.485
MOZHAYETS 4 02 Apr 17:14:33 17:18:23 26° 93° (E) 17:22:17
CUTE-I 02 Apr 17:21:45 17:25:26 20° 62° (ENE) 17:29:16 437.470
Cubesat XI-IV 02 Apr 17:23:13 17:27:00 21° 62° (ENE) 17:30:57 437.490
RS-15 02 Apr 17:23:59 17:31:05 21° 102° (ESE) 17:38:51 29.354- 29.394
AO-7 02 Apr 17:28:42 17:36:20 38° 263° (W) 17:43:50 29.400- 29.500
SO-50 02 Apr 17:41:49 17:45:23 23° 113° (ESE) 17:49:08 436.795
AUBIESAT-1 02 Apr 17:45:15 17:47:10 13° 91° (E) 17:49:18 437.475
M-CUBED/EXP-1 PRIME 02 Apr 18:12:09 18:16:12 27° 98° (E) 18:20:12 437.505
GONETS M04 02 Apr 18:12:31 18:18:24 22° 80° (E) 18:24:41
BEESAT 2 02 Apr 18:15:00 18:19:05 53° 51° (NE) 18:23:06 435.950
AIST 2 02 Apr 18:16:20 18:19:49 24° 42° (NE) 18:23:19 435.215
JAS-2 02 Apr 18:34:46 18:39:15 16° 279° (W) 18:43:29 435.910
BEESAT 3 02 Apr 18:46:31 18:50:36 64° 239° (WSW) 18:54:37 437.485
MOZHAYETS 4 02 Apr 18:51:27 18:55:42 35° 291° (WNW) 18:59:53
CUTE-I 02 Apr 18:59:46 19:05:05 64° 258° (WSW) 19:10:25 437.470
Cubesat XI-IV 02 Apr 19:01:23 19:06:42 61° 259° (WSW) 19:12:02 437.490
CUBESAT XI-V 02 Apr 19:14:25 19:18:39 35° 96° (E) 19:22:53 437.345
AUBIESAT-1 02 Apr 19:17:48 19:22:40 80° 289° (WNW) 19:27:18 437.475
SO-50 02 Apr 19:21:06 19:25:38 49° 311° (NW) 19:30:20 436.795
RS-15 02 Apr 19:31:05 19:41:59 85° 121° (ESE) 19:53:08 29.354- 29.394
PRISM 02 Apr 19:40:23 19:44:26 47° 99° (E) 19:48:26 437.425
M-CUBED/EXP-1 PRIME 02 Apr 19:46:38 19:51:11 39° 296° (WNW) 19:55:33 437.505
CANX-2 02 Apr 19:47:16 19:49:02 13° 63° (ENE) 19:50:59 2200.000
BEESAT 2 02 Apr 19:54:11 19:56:52 16° 248° (WSW) 19:59:23 435.950
AIST 2 02 Apr 19:54:33 19:58:37 44° 242° (WSW) 20:02:36 435.215
CUTE 1.7 + AOD 2 02 Apr 19:59:44 20:02:09 15° 64° (ENE) 20:04:45 437.475
DOVE 4 02 Apr 20:01:40 20:03:27 13° 63° (ENE) 20:05:25 437.250
HO-68 02 Apr 20:04:53 20:11:19 38° 63° (ENE) 20:17:53 435.675
GONETS M04 02 Apr 20:05:34 20:14:17 83° 279° (W) 20:23:07
AAUSAT CUBESAT 2 02 Apr 20:07:26 20:08:31 11° 62° (ENE) 20:09:49 437.432
BRITE-PL 02 Apr 20:10:35 20:14:41 36° 71° (ENE) 20:18:37 437.365/2234.400
STRAND 1 02 Apr 20:16:40 20:21:47 73° 103° (ESE) 20:26:53 437.568
SEEDS 02 Apr 20:21:03 20:24:12 21° 66° (ENE) 20:27:28 437.485
GOMX 1 02 Apr 20:33:07 20:37:09 39° 72° (ENE) 20:41:05 467.674
COMPASS 1 02 Apr 20:35:55 20:39:19 25° 68° (ENE) 20:42:48 437.405
CINEMA 3 02 Apr 20:42:23 20:45:07 18° 65° (ENE) 20:47:58 145.822/145.860
CUBESAT XI-V 02 Apr 20:52:08 20:55:58 26° 293° (WNW) 20:59:43 437.345
DELFI C3 02 Apr 20:52:17 20:53:50 12° 63° (ENE) 20:55:34 145.870
AUBIESAT-1 02 Apr 20:54:39 20:56:43 12° 307° (NW) 20:58:34 437.475
SO-50 02 Apr 21:05:25 21:07:26 12° 333° (NNW) 21:09:19 436.795
Oscar 11 02 Apr 21:05:59 21:09:21 23° 67° (ENE) 21:12:48 145.826/435.025
ISS 02 Apr 21:09:39 21:12:07 20° 136° (SE) 21:14:38 145.825
PRISM 02 Apr 21:16:50 21:19:36 17° 296° (WNW) 21:22:12 437.425
CANX-2 02 Apr 21:20:14 21:24:28 70° 259° (WSW) 21:28:45 2200.000
DANDE 02 Apr 21:20:39 21:23:25 88° 92° (E) 21:26:02 436.750
FUNcube-1 02 Apr 21:26:36 21:29:29 19° 66° (ENE) 21:32:29 145.935
CUTE 1.7 + AOD 2 02 Apr 21:33:32 21:37:41 54° 260° (W) 21:41:54 437.475
DOVE 4 02 Apr 21:36:38 21:40:51 62° 260° (W) 21:44:59 437.250
AAUSAT CUBESAT 2 02 Apr 21:39:25 21:43:36 79° 258° (WSW) 21:47:50 437.432
ZACube-1 02 Apr 21:40:43 21:44:10 26° 68° (ENE) 21:47:44 437.345
UWE-3 02 Apr 21:42:41 21:46:24 34° 70° (ENE) 21:50:13 435.000/436.395/437.385
PCSat 02 Apr 21:42:42 21:46:12 17° 37° (NE) 21:49:51 145.827
CUSAT 1 02 Apr 21:44:57 21:47:06 22° 287° (WNW) 21:49:15 437.405
RS-15 02 Apr 21:45:50 21:55:49 37° 330° (NNW) 22:05:58 29.354- 29.394
BRITE-PL 02 Apr 21:49:51 21:53:22 21° 267° (W) 21:56:40 437.365/2234.400
HO-68 02 Apr 21:52:07 21:58:58 46° 262° (W) 22:05:50 435.675
HUMSAT D 02 Apr 21:53:54 21:56:47 19° 66° (ENE) 21:59:47 437.325/437.525
VELOX 1 02 Apr 21:55:19 21:57:46 15° 63° (ENE) 22:00:22 145.980
SEEDS 02 Apr 21:55:53 21:59:49 37° 263° (W) 22:03:46 437.485
STRAND 1 02 Apr 21:57:18 22:00:28 16° 300° (WNW) 22:03:27 437.568
CUBEBUG 2 02 Apr 21:57:30 22:01:34 60° 74° (ENE) 22:05:43 437.445
AISAT 02 Apr 22:01:38 22:04:31 18° 64° (ENE) 22:07:33 437.250
GONETS M04 02 Apr 22:06:49 22:12:50 19° 303° (WNW) 22:18:29
COMPASS 1 02 Apr 22:11:10 22:14:54 31° 265° (W) 22:18:40 437.405
GOMX 1 02 Apr 22:12:24 22:15:31 19° 268° (W) 22:18:27 467.674
UKube-1 02 Apr 22:13:19 22:17:27 45° 71° (ENE) 22:21:37 .
CINEMA 3 02 Apr 22:18:07 22:22:06 42° 262° (W) 22:26:03 145.822/145.860
DELFI C3 02 Apr 22:24:28 22:28:31 67° 259° (W) 22:32:37 145.870
DX 1 02 Apr 22:29:51 22:34:11 73° 74° (ENE) 22:38:33 434.975-435.025
Oscar 11 02 Apr 22:41:22 22:45:21 35° 264° (W) 22:49:21 145.826/435.025
ISS 02 Apr 22:45:04 22:48:17 57° 332° (NNW) 22:51:31 145.825
ESTCUBE 1 02 Apr 22:46:36 22:50:20 26° 67° (ENE) 22:54:08 437.505/2401.250
ANTELSAT 02 Apr 22:51:53 22:54:56 18° 90° (E) 22:58:09 437.575/2403.000
FUNcube-1 02 Apr 23:01:40 23:05:34 40° 262° (W) 23:09:32 145.935
SPROUT 02 Apr 23:09:04 23:09:47 10° 61° (ENE) 23:10:42 437.525
CUBEBUG 1 02 Apr 23:15:19 23:19:28 43° 71° (ENE) 23:23:39 437.445
ZACube-1 02 Apr 23:16:56 23:20:31 27° 266° (W) 23:24:06 437.345
50 SAT 02 Apr 23:17:52 23:21:46 77° 256° (WSW) 23:25:45 437.505
UWE-3 02 Apr 23:19:52 23:23:05 21° 268° (W) 23:26:15 435.000/436.395/437.385
PCSat 02 Apr 23:25:06 23:30:34 82° 60° (ENE) 23:35:59 145.827
DUCHIFAT 1 02 Apr 23:25:51 23:28:41 18° 91° (E) 23:31:39 145.980
QB50P1 02 Apr 23:26:50 23:29:48 19° 92° (E) 23:32:52 145.935-145.965
HUMSAT D 02 Apr 23:28:28 23:32:19 39° 263° (W) 23:36:13 437.325/437.525
VELOX 1 02 Apr 23:29:31 23:33:55 62° 259° (W) 23:38:19 145.980
AISAT 02 Apr 23:36:29 23:40:48 50° 260° (W) 23:45:08 437.250
CUBEBUG 2 02 Apr 23:37:04 23:38:48 12° 272° (W) 23:40:20 437.445
QB50P2 02 Apr 23:42:55 23:46:35 28° 95° (E) 23:50:18 145.880/145.840
BUGSAT 1 02 Apr 23:44:00 23:46:54 19° 92° (E) 23:49:54 437.445
UNISAT 6 02 Apr 23:46:36 23:51:12 62° 101° (E) 23:55:51 437.425
UKube-1 02 Apr 23:50:54 23:53:53 17° 269° (W) 23:56:44 .
TIGRISAT 02 Apr 23:54:30 23:59:07 73° 103° (ESE) 00:03:48 435.000
YUBILEINY 02 Apr 23:59:44 00:07:37 36° 68° (ENE) 00:15:34 435.215
RS-15 03 Apr 00:03:41 00:12:29 26° 4° (N) 00:21:37 29.354- 29.394
DX 1 03 Apr 00:09:41 00:11:02 11° 272° (W) 00:12:08 434.975-435.025
POPSAT HIP 1 03 Apr 00:10:13 00:14:23 55° 100° (E) 00:18:34 437.405
TISAT 1 03 Apr 00:12:44 00:16:38 39° 71° (ENE) 00:20:35 437.305
NANOSAT C BR1 03 Apr 00:18:40 00:22:54 68° 102° (ESE) 00:27:07 145.865
ISS 03 Apr 00:22:32 00:25:10 22° 352° (N) 00:27:47 145.825
ESTCUBE 1 03 Apr 00:22:57 00:27:06 34° 264° (W) 00:31:14 437.505/2401.250
POLYITAN 1 03 Apr 00:27:26 00:31:43 87° 100° (E) 00:36:00 437.675
ANTELSAT 03 Apr 00:27:33 00:32:03 52° 288° (WNW) 00:36:36 437.575/2403.000
SPROUT 03 Apr 00:40:59 00:45:16 86° 257° (WSW) 00:49:35 437.525
CUBEBUG 1 03 Apr 00:52:56 00:56:06 19° 269° (W) 00:59:07 437.445
ITUPSAT 1 03 Apr 00:55:16 00:58:50 22° 64° (ENE) 01:02:32 437.325
DUCHIFAT 1 03 Apr 01:00:46 01:04:46 42° 289° (WNW) 01:08:45 145.980
QB50P1 03 Apr 01:01:54 01:05:53 40° 289° (WNW) 01:09:50 145.935-145.965
PCSat 03 Apr 01:10:19 01:13:21 15° 255° (WSW) 01:16:08 145.827
QB50P2 03 Apr 01:18:50 01:22:28 27° 292° (WNW) 01:26:01 145.880/145.840
BUGSAT 1 03 Apr 01:18:50 01:22:33 35° 290° (WNW) 01:26:13 437.445
Oscar 19 03 Apr 01:22:38 01:24:13 12° 86° (E) 01:26:09 437.125/150
UNISAT 6 03 Apr 01:24:40 01:27:35 16° 297° (WNW) 01:30:21 437.425
TIGRISAT 03 Apr 01:32:53 01:35:23 14° 298° (WNW) 01:37:42 435.000
SWISSCUBE 03 Apr 01:39:28 01:44:12 60° 72° (ENE) 01:48:57 437.505
BEESAT 03 Apr 01:41:33 01:46:15 58° 72° (ENE) 01:50:59 436.000
POPSAT HIP 1 03 Apr 01:47:21 01:49:54 15° 296° (WNW) 01:52:18 437.405
TISAT 1 03 Apr 01:49:34 01:52:39 19° 268° (W) 01:55:36 437.305
NANOSAT C BR1 03 Apr 01:56:19 01:58:16 13° 298° (WNW) 02:00:03 145.865
YUBILEINY 03 Apr 01:56:21 02:04:53 55° 269° (W) 02:13:16 435.215
ISS 03 Apr 01:59:33 02:02:17 24° 12° (NNE) 02:05:01 145.825
POLYITAN 1 03 Apr 02:06:19 02:07:03 10° 299° (WNW) 02:07:33 437.675
KKS-1 03 Apr 02:07:13 02:10:28 21° 65° (ENE) 02:13:49 437.445
SO-50 03 Apr 02:10:54 02:15:26 35° 45° (NE) 02:19:59 436.795
RS-15 03 Apr 02:18:11 02:28:50 44° 36° (NE) 02:40:02 29.354- 29.394
Gurwin Techsat 1B 03 Apr 02:19:23 02:19:30 10° 84° (E) 02:20:01 435.225
STARS 03 Apr 02:27:16 02:30:32 21° 66° (ENE) 02:33:55 437.465
ITUPSAT 1 03 Apr 02:31:48 02:36:28 47° 261° (W) 02:41:08 437.325
ITAMSAT 1 03 Apr 02:37:41 02:41:16 19° 90° (E) 02:45:01 435.822/435.867
Oscar 19 03 Apr 02:59:12 03:04:24 89° 295° (WNW) 03:09:37 437.125/150
